NORTHEAST SUFFOLK  -  Winter Weather Advisory Winter Weather Advisory        NORTHERN NASSAU  -  Winter Weather Advisory Winter Weather Advisory        NORTHWEST SUFFOLK  -  Winter Weather Advisory Winter Weather Advisory        SOUTHEAST SUFFOLK  -  Winter Weather Advisory Winter Weather Advisory        SOUTHERN NASSAU  -  Winter Weather Advisory Winter Weather Advisory        SOUTHWEST SUFFOLK  -  Winter Weather Advisory Winter Weather Advisory      

Active alerts

Northern Nassau
  Details for Northern Nassau Winter Weather Advisory
Southern Nassau
  Details for Southern Nassau Winter Weather Advisory
Northwest Suffolk
  Details for Northwest Suffolk Winter Weather Advisory
Southwest Suffolk
  Details for Southwest Suffolk Winter Weather Advisory
Northeast Suffolk
  Details for Northeast Suffolk Winter Weather Advisory
Southeast Suffolk
  Details for Southeast Suffolk Winter Weather Advisory


WXM80 ListenWXM80 Stop

You find our weather info also at:

UK Metoffice

WeatherCloud

Weather Underground

Northeastern Weather Network

AWEKAS

Citizen Weather Observer Program (CWOP)

HAMweather, WeatherForYou, PWS Weather


Weather Underground History page Text

Daily Summary for February 13, 2017 Units:  English    Metric   Both
« Previous Day
Next Day »
Daily Weekly Monthly Yearly Custom
  High: Low: Average:
Temperature: 38.8 °F 29.6 °F 35.4 °F
Dew Point: 35.7 °F 21.2 °F 26.4 °F
Humidity: 98 % 56 % 71 %
Wind Speed: 16.4 mph 0.0 mph 8.3 mph
Wind Gust: 36.0 mph - -
Wind:- - WNW
Pressure: 29.94 in 29.52 in -
Precipitation: 0.00 in    
Historical Graphs
 
 
Tabular Data for February 13, 2017
Time Temperature Dew Point Pressure Wind Wind Speed Wind Gust Humidity Rainfall Rate (Hourly)
00:04 33.0 °F 32.2 °F 29.55 in WNW 0.9 mph 4.6 mph 97 % 0.00 in
00:09 33.0 °F 32.2 °F 29.54 in WNW 0.6 mph 3.5 mph 97 % 0.00 in
00:14 32.9 °F 32.1 °F 29.54 in WSW 1.0 mph 3.5 mph 97 % 0.00 in
00:20 32.9 °F 32.1 °F 29.53 in WSW 0.4 mph 3.5 mph 97 % 0.00 in
00:25 32.8 °F 32.0 °F 29.53 in Calm     97 % 0.00 in
00:30 32.8 °F 32.0 °F 29.54 in West 3.2 mph 4.6 mph 97 % 0.00 in
00:35 32.8 °F 32.3 °F 29.55 in West 2.9 mph 5.0 mph 98 % 0.00 in
00:40 32.9 °F 32.1 °F 29.54 in SW 1.6 mph 8.1 mph 97 % 0.00 in
00:45 32.9 °F 32.1 °F 29.54 in SW 0.8 mph 2.3 mph 97 % 0.00 in
00:50 33.0 °F 32.5 °F 29.54 in WSW 1.2 mph 2.0 mph 98 % 0.00 in
00:55 33.0 °F 32.5 °F 29.53 in SSW 1.0 mph 2.3 mph 98 % 0.00 in
01:00 33.0 °F 32.5 °F 29.53 in WSW 1.9 mph 4.0 mph 98 % 0.00 in
01:05 33.2 °F 32.7 °F 29.53 in SW 3.8 mph 9.2 mph 98 % 0.00 in
01:10 33.2 °F 32.7 °F 29.53 in SSW 3.7 mph 6.9 mph 98 % 0.00 in
01:15 33.3 °F 32.8 °F 29.53 in SW 3.7 mph 5.8 mph 98 % 0.00 in
01:20 33.3 °F 32.8 °F 29.53 in WSW 1.7 mph 3.5 mph 98 % 0.00 in
01:25 33.4 °F 32.9 °F 29.53 in WSW 3.9 mph 8.1 mph 98 % 0.00 in
01:30 33.6 °F 33.1 °F 29.53 in WNW 2.5 mph 3.5 mph 98 % 0.00 in
01:35 33.7 °F 33.2 °F 29.53 in WSW 0.7 mph 3.5 mph 98 % 0.00 in
01:40 33.7 °F 33.2 °F 29.53 in WSW 0.1 mph 1.2 mph 98 % 0.00 in
01:45 33.8 °F 33.3 °F 29.52 in WSW 0.6 mph 1.2 mph 98 % 0.00 in
01:50 33.8 °F 33.3 °F 29.53 in SW 0.8 mph 3.5 mph 98 % 0.00 in
01:56 33.9 °F 33.4 °F 29.52 in WSW 0.1 mph 2.3 mph 98 % 0.00 in
02:01 34.0 °F 33.5 °F 29.52 in West 5.1 mph 10.4 mph 98 % 0.00 in
02:06 34.4 °F 33.9 °F 29.53 in WNW 6.2 mph 11.5 mph 98 % 0.00 in
02:11 34.6 °F 34.1 °F 29.54 in NW 3.3 mph 4.6 mph 98 % 0.00 in
02:16 35.0 °F 34.5 °F 29.54 in NW 5.4 mph 9.2 mph 98 % 0.00 in
02:21 35.1 °F 34.6 °F 29.53 in WNW 2.7 mph 4.6 mph 98 % 0.00 in
02:26 35.1 °F 34.6 °F 29.54 in NW 3.2 mph 6.0 mph 98 % 0.00 in
02:31 35.2 °F 34.7 °F 29.53 in West 3.7 mph 11.5 mph 98 % 0.00 in
02:36 35.4 °F 34.9 °F 29.53 in WNW 4.4 mph 10.4 mph 98 % 0.00 in
02:41 35.6 °F 35.1 °F 29.53 in NW 6.9 mph 11.5 mph 98 % 0.00 in
02:46 35.8 °F 35.3 °F 29.53 in West 7.0 mph 10.4 mph 98 % 0.00 in
02:51 35.9 °F 35.4 °F 29.53 in NW 4.1 mph 15.0 mph 98 % 0.00 in
02:56 36.1 °F 35.6 °F 29.53 in West 9.4 mph 12.7 mph 98 % 0.00 in
03:01 36.1 °F 35.6 °F 29.53 in WNW 8.8 mph 11.5 mph 98 % 0.00 in
03:06 36.1 °F 35.6 °F 29.53 in WSW 5.8 mph 16.0 mph 98 % 0.00 in
03:11 36.2 °F 35.7 °F 29.53 in WSW 7.9 mph 12.7 mph 98 % 0.00 in
03:16 36.3 °F 35.5 °F 29.53 in West 10.8 mph 16.1 mph 97 % 0.00 in
03:21 36.3 °F 35.5 °F 29.53 in WNW 8.8 mph 13.8 mph 97 % 0.00 in
03:26 36.3 °F 35.5 °F 29.54 in West 9.3 mph 18.4 mph 97 % 0.00 in
03:31 36.4 °F 35.6 °F 29.54 in West 10.0 mph 18.0 mph 97 % 0.00 in
03:36 36.3 °F 35.3 °F 29.53 in West 16.4 mph 26.5 mph 96 % 0.00 in
03:41 36.3 °F 34.7 °F 29.55 in West 10.7 mph 18.4 mph 94 % 0.00 in
03:46 36.3 °F 34.5 °F 29.55 in NW 7.0 mph 7.0 mph 93 % 0.00 in
03:51 36.3 °F 33.9 °F 29.55 in NW 11.9 mph 20.7 mph 91 % 0.00 in
03:52 36.3 °F 33.9 °F 29.55 in SW 10.2 mph 19.6 mph 91 % 0.00 in
03:57 36.3 °F 33.4 °F 29.55 in WSW 9.4 mph 15.0 mph 89 % 0.00 in
04:02 36.4 °F 33.2 °F 29.55 in West 9.6 mph 22.0 mph 88 % 0.00 in
04:07 36.4 °F 32.6 °F 29.56 in NW 5.7 mph 15.0 mph 86 % 0.00 in
04:12 36.5 °F 32.1 °F 29.56 in NW 11.7 mph 16.1 mph 84 % 0.00 in
04:17 36.5 °F 31.8 °F 29.56 in WNW 10.3 mph 11.5 mph 83 % 0.00 in
04:22 36.6 °F 31.6 °F 29.56 in West 10.3 mph 18.4 mph 82 % 0.00 in
04:27 36.6 °F 31.3 °F 29.57 in WSW 9.2 mph 17.3 mph 81 % 0.00 in
04:32 36.6 °F 31.3 °F 29.57 in West 10.8 mph 21.9 mph 81 % 0.00 in
04:37 36.5 °F 30.6 °F 29.57 in NW 13.2 mph 18.4 mph 79 % 0.00 in
04:42 36.5 °F 30.6 °F 29.57 in WNW 10.2 mph 19.0 mph 79 % 0.00 in
04:48 36.5 °F 30.0 °F 29.57 in NW 7.8 mph 17.3 mph 77 % 0.00 in
04:53 36.5 °F 30.0 °F 29.57 in WSW 14.5 mph 21.9 mph 77 % 0.00 in
04:58 36.5 °F 30.0 °F 29.58 in West 7.8 mph 17.3 mph 77 % 0.00 in
05:03 36.4 °F 29.9 °F 29.57 in WSW 12.0 mph 24.0 mph 77 % 0.00 in
05:08 36.4 °F 29.6 °F 29.57 in SW 9.6 mph 15.0 mph 76 % 0.00 in
05:13 36.2 °F 29.0 °F 29.57 in West 9.9 mph 24.2 mph 75 % 0.00 in
05:18 36.1 °F 28.6 °F 29.58 in SSW 9.3 mph 19.6 mph 74 % 0.00 in
05:23 35.9 °F 28.7 °F 29.57 in West 13.4 mph 26.5 mph 75 % 0.00 in
05:28 35.9 °F 28.4 °F 29.57 in West 13.0 mph 36.0 mph 74 % 0.00 in
05:33 35.8 °F 28.0 °F 29.58 in West 15.0 mph 33.0 mph 73 % 0.00 in
05:38 35.7 °F 27.9 °F 29.57 in West 12.0 mph 23.0 mph 73 % 0.00 in
05:43 35.6 °F 27.1 °F 29.57 in West 13.0 mph 29.0 mph 71 % 0.00 in
05:48 35.6 °F 27.1 °F 29.57 in West 13.0 mph 28.0 mph 71 % 0.00 in
05:53 35.5 °F 27.0 °F 29.57 in WNW 15.0 mph 30.0 mph 71 % 0.00 in
05:58 35.5 °F 27.4 °F 29.58 in WSW 5.5 mph 18.4 mph 72 % 0.00 in
06:03 35.5 °F 28.0 °F 29.57 in WNW 11.1 mph 19.0 mph 74 % 0.00 in
06:08 35.5 °F 28.0 °F 29.58 in West 10.0 mph 27.0 mph 74 % 0.00 in
06:13 35.5 °F 28.0 °F 29.58 in West 12.0 mph 21.0 mph 74 % 0.00 in
06:18 35.5 °F 28.0 °F 29.57 in WNW 8.3 mph 17.3 mph 74 % 0.00 in
06:23 35.5 °F 28.0 °F 29.58 in WNW 11.2 mph 26.5 mph 74 % 0.00 in
06:28 35.5 °F 28.0 °F 29.58 in West 14.0 mph 26.0 mph 74 % 0.00 in
06:33 34.9 °F 27.1 °F 29.59 in West 8.4 mph 20.0 mph 73 % 0.00 in
06:38 34.8 °F 27.0 °F 29.60 in West 10.0 mph 17.0 mph 73 % 0.00 in
06:43 34.8 °F 27.0 °F 29.60 in WNW 10.0 mph 24.0 mph 73 % 0.00 in
06:48 34.7 °F 26.9 °F 29.60 in WNW 10.0 mph 20.0 mph 73 % 0.00 in
06:53 34.6 °F 26.5 °F 29.60 in NW 12.0 mph 23.0 mph 72 % 0.00 in
06:58 34.6 °F 26.8 °F 29.61 in WSW 10.0 mph 11.5 mph 73 % 0.00 in
07:03 34.6 °F 26.8 °F 29.61 in West 10.0 mph 23.0 mph 73 % 0.00 in
07:08 34.6 °F 26.5 °F 29.61 in SW 9.1 mph 20.7 mph 72 % 0.00 in
07:13 34.7 °F 26.9 °F 29.61 in West 8.0 mph 17.0 mph 73 % 0.00 in
07:18 34.7 °F 26.6 °F 29.62 in WNW 9.0 mph 21.0 mph 72 % 0.00 in
07:23 34.8 °F 26.7 °F 29.62 in WNW 9.0 mph 23.0 mph 72 % 0.00 in
07:28 34.8 °F 26.7 °F 29.62 in NW 12.0 mph 23.0 mph 72 % 0.00 in
07:33 34.9 °F 26.8 °F 29.62 in WNW 13.0 mph 35.0 mph 72 % 0.00 in
07:38 35.0 °F 26.5 °F 29.62 in WNW 10.0 mph 26.0 mph 71 % 0.00 in
07:43 35.0 °F 26.9 °F 29.62 in WNW 14.0 mph 25.0 mph 72 % 0.00 in
07:48 35.0 °F 26.5 °F 29.63 in West 9.0 mph 21.0 mph 71 % 0.00 in
07:53 35.0 °F 26.5 °F 29.63 in West 10.0 mph 20.0 mph 71 % 0.00 in
07:58 35.0 °F 26.5 °F 29.63 in WSW 12.2 mph 18.4 mph 71 % 0.00 in
08:03 35.1 °F 26.6 °F 29.62 in WNW 11.2 mph 16.1 mph 71 % 0.00 in
08:08 35.2 °F 26.7 °F 29.62 in WNW 13.0 mph 24.0 mph 71 % 0.00 in
08:13 35.4 °F 26.6 °F 29.63 in West 13.0 mph 28.0 mph 70 % 0.00 in
08:18 35.7 °F 26.9 °F 29.63 in WNW 11.4 mph 26.5 mph 70 % 0.00 in
08:23 35.7 °F 26.9 °F 29.63 in WSW 9.3 mph 26.5 mph 70 % 0.00 in
08:28 35.7 °F 26.9 °F 29.64 in WNW 13.0 mph 22.0 mph 70 % 0.00 in
08:33 35.6 °F 26.8 °F 29.64 in West 12.0 mph 24.0 mph 70 % 0.00 in
08:38 35.5 °F 26.7 °F 29.64 in WNW 8.5 mph 15.0 mph 70 % 0.00 in
08:43 35.5 °F 26.7 °F 29.64 in WNW 9.7 mph 16.1 mph 70 % 0.00 in
08:48 35.6 °F 27.5 °F 29.64 in West 10.0 mph 20.0 mph 72 % 0.00 in
08:53 35.8 °F 27.3 °F 29.65 in WNW 10.0 mph 21.0 mph 71 % 0.00 in
08:58 35.9 °F 27.4 °F 29.65 in West 9.0 mph 19.6 mph 71 % 0.00 in
09:03 36.0 °F 27.5 °F 29.66 in WNW 8.0 mph 17.3 mph 71 % 0.00 in
09:08 36.1 °F 27.6 °F 29.66 in West 14.3 mph 19.6 mph 71 % 0.00 in
09:13 36.2 °F 27.4 °F 29.66 in WNW 10.1 mph 19.6 mph 70 % 0.00 in
09:18 36.5 °F 27.6 °F 29.66 in West 9.5 mph 15.0 mph 70 % 0.00 in
09:23 36.6 °F 27.4 °F 29.66 in WNW 9.5 mph 23.0 mph 69 % 0.00 in
09:29 36.7 °F 27.5 °F 29.67 in NW 6.4 mph 19.6 mph 69 % 0.00 in
09:34 36.9 °F 27.3 °F 29.66 in West 8.0 mph 10.4 mph 68 % 0.00 in
09:39 36.8 °F 26.1 °F 29.67 in West 11.1 mph 18.4 mph 65 % 0.00 in
09:44 36.9 °F 26.6 °F 29.67 in West 10.9 mph 21.9 mph 66 % 0.00 in
09:49 37.1 °F 26.4 °F 29.68 in NNW 10.5 mph 22.0 mph 65 % 0.00 in
09:54 37.3 °F 26.6 °F 29.68 in NW 12.5 mph 25.3 mph 65 % 0.00 in
09:59 37.5 °F 26.8 °F 29.68 in NNW 7.9 mph 20.7 mph 65 % 0.00 in
10:04 37.9 °F 26.8 °F 29.68 in WNW 9.0 mph 17.3 mph 64 % 0.00 in
10:09 38.1 °F 25.4 °F 29.68 in WNW 13.7 mph 21.9 mph 60 % 0.00 in
10:14 38.2 °F 25.5 °F 29.69 in NW 8.6 mph 12.7 mph 60 % 0.00 in
10:19 38.4 °F 25.7 °F 29.69 in NW 9.3 mph 20.7 mph 60 % 0.00 in
10:24 38.6 °F 25.5 °F 29.69 in NW 9.2 mph 19.6 mph 59 % 0.00 in
10:29 38.4 °F 24.9 °F 29.69 in NNW 8.0 mph 18.4 mph 58 % 0.00 in
10:34 38.6 °F 25.9 °F 29.69 in NW 14.3 mph 17.3 mph 60 % 0.00 in
10:39 38.2 °F 24.3 °F 29.69 in NW 13.3 mph 23.0 mph 57 % 0.00 in
10:44 37.8 °F 24.3 °F 29.69 in NW 11.4 mph 21.9 mph 58 % 0.00 in
10:49 37.7 °F 25.1 °F 29.70 in NW 8.8 mph 17.3 mph 60 % 0.00 in
10:54 37.7 °F 24.6 °F 29.70 in NW 9.7 mph 18.4 mph 59 % 0.00 in
10:59 37.6 °F 25.0 °F 29.70 in NW 10.1 mph 24.2 mph 60 % 0.00 in
11:04 37.6 °F 25.4 °F 29.70 in NNW 9.5 mph 16.1 mph 61 % 0.00 in
11:09 37.4 °F 24.4 °F 29.70 in NW 12.4 mph 19.6 mph 59 % 0.00 in
11:14 37.2 °F 24.6 °F 29.70 in NNE 10.6 mph 20.7 mph 60 % 0.00 in
11:19 37.1 °F 24.9 °F 29.70 in NW 11.0 mph 16.1 mph 61 % 0.00 in
11:25 37.2 °F 24.6 °F 29.70 in NW 12.0 mph 19.6 mph 60 % 0.00 in
11:29 37.3 °F 24.7 °F 29.70 in NW 7.5 mph 19.6 mph 60 % 0.00 in
11:35 37.3 °F 25.1 °F 29.70 in NW 11.1 mph 17.3 mph 61 % 0.00 in
11:40 37.2 °F 24.2 °F 29.71 in NW 10.7 mph 16.1 mph 59 % 0.00 in
11:45 37.2 °F 24.2 °F 29.71 in WNW 12.9 mph 24.0 mph 59 % 0.00 in
11:50 37.2 °F 24.6 °F 29.70 in WNW 7.4 mph 15.0 mph 60 % 0.00 in
11:55 37.5 °F 25.3 °F 29.70 in NW 7.9 mph 16.0 mph 61 % 0.00 in
12:00 37.7 °F 24.6 °F 29.70 in NNW 9.7 mph 14.0 mph 59 % 0.00 in
12:05 37.8 °F 24.3 °F 29.70 in North 11.6 mph 19.6 mph 58 % 0.00 in
12:10 37.8 °F 24.7 °F 29.70 in NW 9.4 mph 20.7 mph 59 % 0.00 in
12:15 37.9 °F 24.4 °F 29.70 in WNW 15.6 mph 20.0 mph 58 % 0.00 in
12:20 38.0 °F 24.5 °F 29.70 in WNW 11.9 mph 21.9 mph 58 % 0.00 in
12:25 38.2 °F 24.7 °F 29.70 in West 9.5 mph 17.3 mph 58 % 0.00 in
12:35 38.3 °F 24.8 °F 29.70 in WNW 11.0 mph 20.7 mph 58 % 0.00 in
12:40 38.2 °F 24.7 °F 29.70 in West 11.0 mph 25.3 mph 58 % 0.00 in
12:45 38.0 °F 24.5 °F 29.71 in WNW 13.7 mph 23.0 mph 58 % 0.00 in
12:50 37.8 °F 24.3 °F 29.70 in NNW 8.9 mph 17.3 mph 58 % 0.00 in
12:55 37.7 °F 25.1 °F 29.70 in NW 6.3 mph 15.0 mph 60 % 0.00 in
13:00 37.8 °F 24.3 °F 29.71 in WNW 11.9 mph 18.4 mph 58 % 0.00 in
13:05 37.9 °F 24.0 °F 29.71 in SW 11.3 mph 19.6 mph 57 % 0.00 in
13:10 38.0 °F 24.5 °F 29.71 in NW 15.2 mph 25.3 mph 58 % 0.00 in
13:15 38.3 °F 24.8 °F 29.71 in NW 12.3 mph 19.6 mph 58 % 0.00 in
13:21 38.5 °F 25.0 °F 29.71 in WNW 10.4 mph 19.6 mph 58 % 0.00 in
13:25 38.4 °F 24.5 °F 29.71 in NW 13.5 mph 20.7 mph 57 % 0.00 in
13:31 38.3 °F 24.4 °F 29.72 in NNW 15.4 mph 25.3 mph 57 % 0.00 in
13:36 38.2 °F 23.9 °F 29.72 in WNW 9.8 mph 18.4 mph 56 % 0.00 in
13:41 38.2 °F 25.1 °F 29.72 in West 10.5 mph 17.3 mph 59 % 0.00 in
13:46 38.3 °F 24.8 °F 29.72 in West 10.8 mph 26.5 mph 58 % 0.00 in
13:51 38.4 °F 24.9 °F 29.73 in West 8.2 mph 17.0 mph 58 % 0.00 in
13:56 38.4 °F 24.9 °F 29.73 in WNW 13.2 mph 20.0 mph 58 % 0.00 in
14:01 38.5 °F 25.0 °F 29.73 in North 9.1 mph 16.1 mph 58 % 0.00 in
14:06 38.6 °F 25.1 °F 29.73 in NNW 10.0 mph 19.6 mph 58 % 0.00 in
14:11 38.7 °F 25.2 °F 29.74 in NW 11.1 mph 13.8 mph 58 % 0.00 in
14:16 38.6 °F 25.1 °F 29.74 in North 6.6 mph 16.1 mph 58 % 0.00 in
14:21 38.7 °F 25.2 °F 29.74 in West 11.3 mph 19.6 mph 58 % 0.00 in
14:26 38.7 °F 24.8 °F 29.74 in NW 10.5 mph 19.0 mph 57 % 0.00 in
14:31 38.8 °F 25.3 °F 29.74 in NW 11.6 mph 25.3 mph 58 % 0.00 in
14:36 38.8 °F 25.3 °F 29.73 in North 11.7 mph 18.4 mph 58 % 0.00 in
14:41 38.8 °F 25.3 °F 29.74 in West 11.7 mph 16.1 mph 58 % 0.00 in
14:46 38.6 °F 25.5 °F 29.74 in WNW 8.0 mph 26.5 mph 59 % 0.00 in
14:51 38.5 °F 25.4 °F 29.74 in North 11.9 mph 19.6 mph 59 % 0.00 in
14:56 38.4 °F 25.3 °F 29.74 in NNW 8.8 mph 19.6 mph 59 % 0.00 in
15:01 38.2 °F 25.1 °F 29.74 in North 8.3 mph 26.5 mph 59 % 0.00 in
15:06 38.2 °F 25.1 °F 29.75 in NNW 9.9 mph 17.3 mph 59 % 0.00 in
15:11 38.1 °F 25.0 °F 29.75 in North 10.9 mph 20.0 mph 59 % 0.00 in
15:16 38.0 °F 24.5 °F 29.75 in NW 8.4 mph 19.6 mph 58 % 0.00 in
15:21 37.9 °F 24.4 °F 29.75 in NNW 11.1 mph 24.0 mph 58 % 0.00 in
15:26 37.8 °F 24.7 °F 29.75 in NW 12.0 mph 20.7 mph 59 % 0.00 in
15:31 37.8 °F 24.7 °F 29.75 in NW 10.2 mph 19.6 mph 59 % 0.00 in
15:37 37.8 °F 25.1 °F 29.75 in West 7.8 mph 22.0 mph 60 % 0.00 in
15:42 37.7 °F 24.6 °F 29.75 in NNW 9.3 mph 20.7 mph 59 % 0.00 in
15:47 37.7 °F 24.6 °F 29.75 in NNW 10.1 mph 16.1 mph 59 % 0.00 in
15:52 37.6 °F 24.6 °F 29.75 in NW 15.5 mph 23.0 mph 59 % 0.00 in
15:57 37.5 °F 24.1 °F 29.75 in NNE 10.8 mph 21.9 mph 58 % 0.00 in
16:02 37.5 °F 24.1 °F 29.75 in North 12.6 mph 18.4 mph 58 % 0.00 in
16:07 37.4 °F 24.4 °F 29.76 in WNW 12.7 mph 16.1 mph 59 % 0.00 in
16:12 37.4 °F 24.8 °F 29.76 in WSW 10.1 mph 16.1 mph 60 % 0.00 in
16:17 37.3 °F 24.7 °F 29.76 in NW 7.1 mph 12.7 mph 60 % 0.00 in
16:18 37.3 °F 24.7 °F 29.77 in West 9.2 mph 13.8 mph 60 % 0.00 in
16:23 37.3 °F 24.7 °F 29.77 in NW 9.8 mph 23.0 mph 60 % 0.00 in
16:28 37.2 °F 24.6 °F 29.78 in North 7.8 mph 15.0 mph 60 % 0.00 in
16:33 37.1 °F 24.5 °F 29.78 in West 9.7 mph 16.1 mph 60 % 0.00 in
16:38 37.0 °F 24.0 °F 29.78 in NNW 7.8 mph 18.4 mph 59 % 0.00 in
16:43 36.9 °F 24.3 °F 29.78 in NNW 8.1 mph 16.1 mph 60 % 0.00 in
16:48 36.8 °F 24.2 °F 29.78 in North 9.8 mph 23.0 mph 60 % 0.00 in
16:53 36.8 °F 25.0 °F 29.78 in WNW 6.5 mph 16.1 mph 62 % 0.00 in
16:58 36.7 °F 25.3 °F 29.79 in NW 5.9 mph 9.2 mph 63 % 0.00 in
16:59 36.7 °F 25.3 °F 29.78 in NNW 6.5 mph 10.4 mph 63 % 0.00 in
17:04 36.6 °F 24.4 °F 29.79 in NNW 12.1 mph 16.1 mph 61 % 0.00 in
17:09 36.5 °F 24.7 °F 29.79 in WNW 7.6 mph 17.3 mph 62 % 0.00 in
17:14 36.4 °F 24.2 °F 29.79 in NNW 8.8 mph 17.3 mph 61 % 0.00 in
17:19 36.5 °F 24.3 °F 29.79 in NNW 13.1 mph 19.6 mph 61 % 0.00 in
17:24 36.5 °F 23.1 °F 29.80 in West 10.0 mph 21.9 mph 58 % 0.00 in
17:29 36.4 °F 24.2 °F 29.80 in NNW 9.0 mph 13.0 mph 61 % 0.00 in
17:34 36.3 °F 23.7 °F 29.80 in NNW 11.4 mph 22.0 mph 60 % 0.00 in
17:39 36.2 °F 23.2 °F 29.81 in West 12.2 mph 23.0 mph 59 % 0.00 in
17:44 36.1 °F 23.1 °F 29.82 in NNW 9.8 mph 18.4 mph 59 % 0.00 in
17:49 36.1 °F 23.9 °F 29.82 in NW 9.8 mph 20.7 mph 61 % 0.00 in
17:54 36.0 °F 23.4 °F 29.82 in WNW 9.1 mph 16.0 mph 60 % 0.00 in
17:59 35.9 °F 23.7 °F 29.83 in West 10.0 mph 18.4 mph 61 % 0.00 in
18:04 35.8 °F 23.7 °F 29.83 in WNW 7.7 mph 18.4 mph 61 % 0.00 in
18:09 35.7 °F 23.2 °F 29.83 in NW 8.9 mph 13.8 mph 60 % 0.00 in
18:14 35.6 °F 23.5 °F 29.83 in NNW 10.5 mph 22.0 mph 61 % 0.00 in
18:19 35.4 °F 23.3 °F 29.84 in WNW 6.1 mph 19.6 mph 61 % 0.00 in
18:24 35.4 °F 23.3 °F 29.84 in NNW 10.6 mph 19.6 mph 61 % 0.00 in
18:29 35.3 °F 22.8 °F 29.84 in WNW 5.4 mph 18.4 mph 60 % 0.00 in
18:35 35.1 °F 23.0 °F 29.85 in NW 8.9 mph 15.0 mph 61 % 0.00 in
18:40 35.0 °F 22.9 °F 29.85 in NNW 8.1 mph 15.0 mph 61 % 0.00 in
18:45 34.9 °F 23.6 °F 29.86 in NW 8.0 mph 17.3 mph 63 % 0.00 in
18:50 34.8 °F 22.3 °F 29.87 in WNW 9.3 mph 14.0 mph 60 % 0.00 in
18:55 34.7 °F 22.2 °F 29.87 in NW 10.7 mph 20.7 mph 60 % 0.00 in
19:00 34.6 °F 22.9 °F 29.87 in NNW 6.1 mph 12.0 mph 62 % 0.00 in
19:05 34.5 °F 22.8 °F 29.86 in NW 9.8 mph 19.6 mph 62 % 0.00 in
19:10 34.4 °F 22.7 °F 29.86 in NW 9.3 mph 17.3 mph 62 % 0.00 in
19:15 34.2 °F 22.5 °F 29.86 in NNW 9.8 mph 13.8 mph 62 % 0.00 in
19:20 34.1 °F 22.8 °F 29.86 in North 6.7 mph 16.1 mph 63 % 0.00 in
19:25 34.0 °F 22.7 °F 29.87 in NW 7.0 mph 15.0 mph 63 % 0.00 in
19:30 34.0 °F 23.5 °F 29.87 in WNW 7.4 mph 10.4 mph 65 % 0.00 in
19:35 33.9 °F 23.0 °F 29.88 in NNW 6.2 mph 15.0 mph 64 % 0.00 in
19:40 33.8 °F 22.5 °F 29.87 in NNW 7.6 mph 11.0 mph 63 % 0.00 in
19:45 33.7 °F 22.4 °F 29.87 in NNW 6.1 mph 10.4 mph 63 % 0.00 in
19:50 33.6 °F 22.7 °F 29.88 in North 6.1 mph 11.5 mph 64 % 0.00 in
19:55 33.5 °F 22.6 °F 29.88 in NW 6.9 mph 13.0 mph 64 % 0.00 in
20:01 33.4 °F 22.5 °F 29.87 in NW 7.0 mph 10.4 mph 64 % 0.00 in
20:06 33.3 °F 22.8 °F 29.87 in NW 6.3 mph 10.4 mph 65 % 0.00 in
20:11 33.2 °F 22.3 °F 29.88 in NNW 5.9 mph 12.0 mph 64 % 0.00 in
20:16 33.1 °F 22.2 °F 29.88 in WNW 6.9 mph 12.0 mph 64 % 0.00 in
20:21 33.1 °F 22.2 °F 29.88 in NNW 7.4 mph 14.0 mph 64 % 0.00 in
20:26 33.0 °F 22.1 °F 29.88 in NNW 6.1 mph 18.4 mph 64 % 0.00 in
20:31 32.9 °F 22.4 °F 29.88 in NNW 8.8 mph 19.6 mph 65 % 0.00 in
20:36 32.9 °F 22.8 °F 29.88 in WNW 5.5 mph 11.5 mph 66 % 0.00 in
20:41 32.8 °F 22.7 °F 29.89 in WNW 5.2 mph 6.9 mph 66 % 0.00 in
20:46 32.7 °F 22.6 °F 29.89 in NNW 6.6 mph 10.4 mph 66 % 0.00 in
20:51 32.7 °F 22.6 °F 29.90 in NW 2.8 mph 6.9 mph 66 % 0.00 in
20:56 32.6 °F 23.2 °F 29.90 in NW 3.7 mph 4.0 mph 68 % 0.00 in
21:01 32.6 °F 23.2 °F 29.90 in NNW 2.3 mph 3.5 mph 68 % 0.00 in
21:06 32.5 °F 23.1 °F 29.90 in NNW 3.0 mph 5.8 mph 68 % 0.00 in
21:11 32.3 °F 22.6 °F 29.91 in North 3.5 mph 8.1 mph 67 % 0.00 in
21:16 32.1 °F 22.4 °F 29.90 in North 5.6 mph 11.5 mph 67 % 0.00 in
21:21 32.0 °F 22.6 °F 29.91 in North 4.0 mph 11.5 mph 68 % 0.00 in
21:26 31.8 °F 22.4 °F 29.91 in NNW 5.2 mph 11.5 mph 68 % 0.00 in
21:31 31.7 °F 22.3 °F 29.91 in NW 5.8 mph 9.2 mph 68 % 0.00 in
21:36 31.6 °F 22.2 °F 29.92 in NNW 6.2 mph 11.5 mph 68 % 0.00 in
21:42 31.5 °F 21.8 °F 29.92 in NNW 5.0 mph 8.1 mph 67 % 0.00 in
21:47 31.4 °F 21.7 °F 29.92 in North 2.5 mph 6.9 mph 67 % 0.00 in
21:52 31.2 °F 21.9 °F 29.92 in WNW 6.4 mph 10.4 mph 68 % 0.00 in
21:57 31.2 °F 21.9 °F 29.92 in NNE 3.9 mph 8.1 mph 68 % 0.00 in
22:02 31.0 °F 21.7 °F 29.92 in North 5.5 mph 8.1 mph 68 % 0.00 in
22:07 30.9 °F 21.6 °F 29.92 in NW 5.8 mph 8.1 mph 68 % 0.00 in
22:12 30.9 °F 21.6 °F 29.92 in NNW 3.2 mph 8.1 mph 68 % 0.00 in
22:17 30.8 °F 21.5 °F 29.92 in NNW 3.6 mph 4.6 mph 68 % 0.00 in
22:22 30.6 °F 21.6 °F 29.92 in NNW 2.6 mph 6.9 mph 69 % 0.00 in
22:27 30.6 °F 21.6 °F 29.92 in NNW 4.5 mph 6.9 mph 69 % 0.00 in
22:32 30.5 °F 21.5 °F 29.93 in WNW 1.6 mph 4.6 mph 69 % 0.00 in
22:37 30.4 °F 21.4 °F 29.93 in NNE 2.9 mph 6.0 mph 69 % 0.00 in
22:42 30.3 °F 21.3 °F 29.93 in North 3.5 mph 5.8 mph 69 % 0.00 in
22:47 30.3 °F 21.3 °F 29.93 in NW 4.6 mph 6.0 mph 69 % 0.00 in
22:52 30.2 °F 21.6 °F 29.93 in North 4.4 mph 10.4 mph 70 % 0.00 in
22:57 30.2 °F 21.2 °F 29.93 in NNW 3.1 mph 7.0 mph 69 % 0.00 in
23:02 30.2 °F 21.6 °F 29.93 in NNW 4.4 mph 8.1 mph 70 % 0.00 in
23:08 30.1 °F 21.5 °F 29.93 in WNW 1.3 mph 5.0 mph 70 % 0.00 in
23:13 30.1 °F 21.5 °F 29.93 in NNW 2.4 mph 4.6 mph 70 % 0.00 in
23:18 30.1 °F 21.5 °F 29.93 in NNW 4.1 mph 6.9 mph 70 % 0.00 in
23:23 30.0 °F 21.4 °F 29.93 in North 4.0 mph 5.8 mph 70 % 0.00 in
23:28 29.9 °F 21.6 °F 29.93 in NW 0.8 mph 3.0 mph 71 % 0.00 in
23:33 29.8 °F 21.5 °F 29.94 in NNW 3.8 mph 6.9 mph 71 % 0.00 in
23:38 29.8 °F 21.5 °F 29.93 in NNW 4.5 mph 10.0 mph 71 % 0.00 in
23:43 29.8 °F 21.5 °F 29.94 in NNW 1.1 mph 3.5 mph 71 % 0.00 in
23:48 29.7 °F 21.4 °F 29.94 in NW 3.7 mph 6.9 mph 71 % 0.00 in
23:53 29.7 °F 21.4 °F 29.94 in NNW 4.3 mph 7.0 mph 71 % 0.00 in
23:58 29.6 °F 21.3 °F 29.93 in NNW 4.8 mph 6.0 mph 71 % 0.00 in
Crab Meadow Weather
Compliments of Weather Underground - 3 mb

Script developed by  Jim McMurry - jmcmurry@mwt.net Adapted for the template by  Wim van der Kuil - Leuven-Template.eu

Weather Terms: Outlook - A hazardous weather outlook is issued daily to indicate that a hazardous weather or hydrologic event may occur in the next several days. The outlook will include information about potential severe thunderstorms , heavy rain or flooding, winter weather, extremes of heat or cold, etc., that may develop over the next 7 days with an emphasis on the first 24 hours of the forecast. It is intended to provide information to those who need considerable lead time to prepare for the event.